Weather in Klaipeda

Lithuania     55°42′18″N   21°08′57″E
temp.,
°C
wind,
m/s
gust,
m/s
humid.,
%
clouds,
%
prec.,
mm/h
press.,
hPa
HPBL,
m
27 february, sat
sat2723:00+4wnw611860 0.0 1018236
02:00+3nnw511891 0.0 1020232
05:00+3nnw7148728 0.0 1021419
08:00+2nnw6148714 0.0 1024470
11:00+4nnw812750 0.0 1026641
14:00+5nnw912690 0.0 1028711
17:00+4nnw711780 0.0 1028542
20:00+2nw48900 0.0 1030238
28 february, sun
sun2823:00+2nw469051 0.0 1030146
02:00+3wnw458575 0.0 1029102
05:00+3wnw458326 0.0 102884
08:00+3wnw478758 0.0 1027136
11:00+5nw588167 0.0 1026322
14:00+7nw7117172 0.0 1027728
17:00+6nnw597661 0.0 1027446
20:00+4nnw488737 0.0 1029183
1 march, mon
mon123:00+3nnw49900 0.0 1029179
02:00+3nnw47900 0.0 1031108
05:00+3nw33880 0.0 103026
08:00+4wnw45840 0.0 103159
11:00+6w59750 0.0 1030282
14:00+6wsw611760 0.0 1029349
17:00+5w713886 0.0 1028465
20:00+3wnw6119040 0.0 1028276
2 march, tue
tue223:00+3wnw46890 0.0 102991
02:00+3wnw22865 0.0 102922
05:00+3wnw22830 0.0 102822
08:00+3wnw23820 0.0 102922
11:00+6w34750 0.0 1029230
14:00+6w45791 0.0 1029271
17:00+4w34860 0.0 1028221
20:00+2w34940 0.0 102973
3 march, wed
wed323:00+2w22920 0.0 102926
02:00+2sw22922 0.0 102924
05:00+1sw359759 0.0 1028123
08:00+1s449676 0.0 1028304
11:00+1s4589100 0.0 1028389
14:00+3s4589100 0.0 1026277
17:00+3ssw469171 0.0 1024222
20:00+2sw459337 0.0 102291